BEIDOU-3 G3 (PRN 143)

Last updated on Sun Apr 12 2026 00:03:34 GMT+0000 (Coordinated Universal Time)

1 45807U 20040A 26101.54261748 -.00000350 00000+0 00000+0 0 9994 2 45807 2.2827 67.2319 0004714 332.9382 105.4044 1.00266602 21409
UTC large
Height (km)
Speed (km/s)
/
Latitude / Longitude
Inclination (degrees)
Orbital Period (minutes)
Azimuth
Elevation
Range (km)
Doppler Factor

Next 0 passes for location: London (51.5072 / 0.1276)

Sorry there are no passes over London.
BEIDOU-3 G3 (PRN 143)